Time,Snow Cover Fraction,Confidence
2022-08-01T06:00:00,0,63.39
2022-08-01T07:00:00,0,71.86
2022-08-01T08:00:00,0,67.59
2022-08-01T09:00:00,0,53.28
2022-08-01T10:00:00,0,72.23
2022-08-01T11:00:00,0,70.01
2022-08-01T12:00:00,0,63.22
2022-08-01T13:00:00,0,68.83
2022-08-01T14:00:00,0,61.88
2022-08-01T15:00:00,0,80.18
2022-08-01T16:00:00,0,61.14
2022-08-01T17:00:00,0,51.49
2022-08-01T18:00:00,0,71.63
2022-08-02T06:00:00,0,66.35
2022-08-02T07:00:00,0,61.65
2022-08-02T08:00:00,50,54.19
2022-08-02T09:00:00,50,64.17
2022-08-02T10:00:00,0,59.83
2022-08-02T11:00:00,0,73.95
2022-08-02T12:00:00,0,71.03
2022-08-02T13:00:00,0,85.12
2022-08-02T14:00:00,0,73.67
2022-08-02T15:00:00,0,67.65
2022-08-02T16:00:00,0,73.80
2022-08-02T17:00:00,0,72.93
2022-08-02T18:00:00,0,66.97
2022-08-03T06:00:00,0,71.70
2022-08-03T07:00:00,0,70.75
2022-08-03T08:00:00,0,69.92
2022-08-03T09:00:00,0,69.30
2022-08-03T10:00:00,0,68.56
2022-08-03T11:00:00,0,69.53
2022-08-03T12:00:00,0,65.08
2022-08-03T13:00:00,0,72.08
2022-08-03T14:00:00,0,76.44
2022-08-03T15:00:00,0,66.52
2022-08-03T16:00:00,0,56.13
2022-08-03T17:00:00,50,51.90
2022-08-03T18:00:00,0,74.17
2022-08-04T06:00:00,50,50.55
2022-08-04T07:00:00,0,72.14
2022-08-04T08:00:00,50,58.47
2022-08-04T09:00:00,0,54.36
2022-08-04T14:00:00,0,50.79
2022-08-04T15:00:00,0,83.76
2022-08-04T16:00:00,0,83.91
2022-08-04T17:00:00,0,60.74
2022-08-04T18:00:00,0,73.51
2022-08-05T07:00:00,0,50.01
2022-08-05T08:00:00,0,62.30
2022-08-05T09:00:00,0,64.38
2022-08-05T10:00:00,0,66.07
2022-08-05T11:00:00,0,60.66
2022-08-05T12:00:00,0,70.30
2022-08-05T13:00:00,0,69.42
2022-08-05T14:00:00,0,56.60
2022-08-05T15:00:00,0,62.35
2022-08-05T16:00:00,0,66.40
2022-08-05T17:00:00,0,64.55
2022-08-05T18:00:00,0,61.30
2022-08-06T06:00:00,0,72.49
2022-08-06T07:00:00,0,50.89
2022-08-06T08:00:00,0,51.24
2022-08-06T09:00:00,0,51.89
2022-08-06T10:00:00,0,61.73
2022-08-06T12:00:00,0,57.13
2022-08-06T13:00:00,0,72.43
2022-08-06T14:00:00,50,57.65
2022-08-06T15:00:00,0,51.54
2022-08-06T16:00:00,0,73.48
2022-08-06T17:00:00,0,52.76
2022-08-06T18:00:00,0,47.23
2022-08-07T06:00:00,0,75.62
2022-08-07T07:00:00,0,79.66
2022-08-07T08:00:00,0,63.76
2022-08-07T09:00:00,0,57.41
2022-08-07T10:00:00,0,53.63
2022-08-07T11:00:00,0,61.04
2022-08-07T12:00:00,0,64.11
2022-08-07T13:00:00,0,73.66
2022-08-07T14:00:00,0,66.10
2022-08-07T15:00:00,0,66.59
2022-08-07T16:00:00,0,57.82
2022-08-07T17:00:00,0,61.07
2022-08-07T18:00:00,0,63.07
2022-08-08T06:00:00,0,62.13
2022-08-08T07:00:00,0,69.64
2022-08-08T08:00:00,0,51.77
2022-08-08T09:00:00,0,66.71
2022-08-08T10:00:00,0,63.05
2022-08-08T11:00:00,0,70.39
2022-08-08T12:00:00,0,72.59
2022-08-08T13:00:00,0,65.66
2022-08-08T14:00:00,0,68.79
2022-08-08T15:00:00,0,60.71
2022-08-08T16:00:00,0,55.83
2022-08-08T17:00:00,0,55.59
2022-08-08T18:00:00,0,65.20
2022-08-09T06:00:00,0,74.02
2022-08-09T07:00:00,0,72.12
2022-08-09T08:00:00,50,56.95
2022-08-09T09:00:00,50,55.06
2022-08-09T10:00:00,50,60.85
2022-08-09T11:00:00,0,63.47
2022-08-09T12:00:00,0,71.32
2022-08-09T13:00:00,0,75.53
2022-08-09T14:00:00,0,54.45
2022-08-09T15:00:00,0,62.07
2022-08-09T16:00:00,0,63.29
2022-08-09T17:00:00,50,58.89
2022-08-09T18:00:00,0,65.22
2022-08-10T06:00:00,0,61.92
2022-08-10T07:00:00,0,71.81
2022-08-10T08:00:00,0,55.67
2022-08-10T09:00:00,0,61.40
2022-08-10T10:00:00,0,58.72
2022-08-10T11:00:00,50,62.04
2022-08-10T12:00:00,0,72.26
2022-08-10T13:00:00,0,50.77
2022-08-10T14:00:00,0,67.68
2022-08-10T15:00:00,0,70.96
2022-08-10T16:00:00,0,87.50
2022-08-10T17:00:00,50,58.34
2022-08-10T18:00:00,0,61.95
2022-08-11T06:00:00,0,55.37
2022-08-11T07:00:00,0,74.73
2022-08-11T08:00:00,50,52.46
2022-08-11T09:00:00,0,56.08
2022-08-11T10:00:00,50,53.93
2022-08-11T11:00:00,0,69.62
2022-08-11T12:00:00,0,61.44
2022-08-11T13:00:00,0,74.47
2022-08-11T14:00:00,0,76.57
2022-08-11T15:00:00,0,63.01
2022-08-11T16:00:00,0,65.19
2022-08-11T17:00:00,0,52.52
2022-08-11T18:00:00,0,59.65
2022-08-12T06:00:00,0,56.85
2022-08-12T07:00:00,0,65.78
2022-08-12T08:00:00,50,50.69
2022-08-12T09:00:00,50,58.16
2022-08-12T10:00:00,50,62.32
2022-08-12T11:00:00,0,51.69
2022-08-12T12:00:00,0,51.32
2022-08-12T13:00:00,0,60.06
2022-08-12T14:00:00,0,58.91
2022-08-12T15:00:00,0,82.14
2022-08-12T16:00:00,0,66.74
2022-08-12T17:00:00,0,66.39
2022-08-12T18:00:00,0,74.79
2022-08-13T06:00:00,0,64.95
2022-08-13T07:00:00,0,71.71
2022-08-13T08:00:00,0,59.42
2022-08-13T09:00:00,50,76.09
2022-08-13T10:00:00,0,51.95
2022-08-13T11:00:00,50,67.10
2022-08-13T12:00:00,0,73.82
2022-08-13T13:00:00,0,73.90
2022-08-13T14:00:00,0,74.04
2022-08-13T15:00:00,0,90.49
2022-08-13T16:00:00,0,61.94
2022-08-13T17:00:00,0,50.51
2022-08-13T18:00:00,0,73.79
2022-08-14T06:00:00,0,63.73
2022-08-14T07:00:00,0,74.55
2022-08-14T08:00:00,0,58.43
2022-08-14T09:00:00,50,70.24
2022-08-14T10:00:00,0,52.12
2022-08-14T11:00:00,50,56.76
2022-08-14T12:00:00,0,76.85
2022-08-14T13:00:00,0,66.83
2022-08-14T15:00:00,0,86.81
2022-08-14T16:00:00,0,73.37
2022-08-14T17:00:00,0,75.94
2022-08-14T18:00:00,0,74.97
2022-08-15T06:00:00,0,62.88
2022-08-15T07:00:00,0,84.48
2022-08-15T08:00:00,0,78.38
2022-08-15T09:00:00,0,52.28
2022-08-15T10:00:00,0,72.08
2022-08-15T11:00:00,0,65.38
2022-08-15T12:00:00,0,85.99
2022-08-15T13:00:00,0,72.74
2022-08-15T14:00:00,0,74.45
2022-08-15T15:00:00,0,74.95
2022-08-15T16:00:00,0,80.57
2022-08-15T18:00:00,0,69.78
2022-08-16T06:00:00,0,74.69
2022-08-16T07:00:00,0,72.48
2022-08-16T08:00:00,0,79.69
2022-08-16T09:00:00,0,75.35
2022-08-16T10:00:00,0,75.81
2022-08-16T11:00:00,0,68.85
2022-08-16T12:00:00,0,88.26
2022-08-16T13:00:00,0,74.04
2022-08-16T14:00:00,0,88.01
2022-08-16T15:00:00,0,83.97
2022-08-16T16:00:00,0,77.44
2022-08-16T17:00:00,0,66.07
2022-08-16T18:00:00,0,88.87
2022-08-17T06:00:00,0,74.47
2022-08-17T07:00:00,0,82.93
2022-08-17T08:00:00,0,87.59
2022-08-17T09:00:00,0,90.79
2022-08-17T10:00:00,0,68.34
2022-08-17T11:00:00,0,68.30
2022-08-17T12:00:00,0,82.64
2022-08-17T13:00:00,0,73.95
2022-08-17T14:00:00,0,78.00
2022-08-17T15:00:00,0,81.07
2022-08-17T18:00:00,0,71.98
2022-08-18T06:00:00,0,60.51
2022-08-18T07:00:00,0,78.45
2022-08-18T08:00:00,0,70.54
2022-08-18T09:00:00,50,51.18
2022-08-18T10:00:00,0,72.29
2022-08-18T11:00:00,0,71.21
2022-08-18T12:00:00,0,75.49
2022-08-18T13:00:00,0,85.26
2022-08-18T14:00:00,0,78.87
2022-08-18T15:00:00,0,87.60
2022-08-18T16:00:00,0,77.31
2022-08-18T18:00:00,0,69.40
2022-08-19T06:00:00,0,53.97
2022-08-19T08:00:00,0,81.95
2022-08-19T09:00:00,0,80.16
2022-08-19T10:00:00,0,65.29
2022-08-19T11:00:00,0,74.68
2022-08-19T12:00:00,0,76.66
2022-08-19T13:00:00,0,74.95
2022-08-19T14:00:00,0,75.64
2022-08-19T15:00:00,0,84.30
2022-08-19T16:00:00,0,70.13
2022-08-19T17:00:00,0,72.55
2022-08-19T18:00:00,0,53.22
2022-08-20T06:00:00,0,78.33
2022-08-20T07:00:00,0,75.23
2022-08-20T08:00:00,0,80.17
2022-08-20T09:00:00,0,78.97
2022-08-20T10:00:00,0,76.61
2022-08-20T11:00:00,0,80.18
2022-08-20T12:00:00,0,83.82
2022-08-20T13:00:00,0,70.68
2022-08-20T14:00:00,0,83.86
2022-08-20T15:00:00,0,75.57
2022-08-20T16:00:00,0,85.00
2022-08-20T17:00:00,0,79.07
2022-08-20T18:00:00,0,80.34
2022-08-21T06:00:00,50,57.16
2022-08-21T07:00:00,0,79.00
2022-08-21T08:00:00,0,90.25
2022-08-21T09:00:00,0,71.68
2022-08-21T10:00:00,0,84.06
2022-08-21T11:00:00,0,75.79
2022-08-21T12:00:00,0,89.79
2022-08-21T13:00:00,0,85.91
2022-08-21T14:00:00,0,83.64
2022-08-21T15:00:00,0,87.00
2022-08-21T16:00:00,0,79.98
2022-08-21T17:00:00,0,72.71
2022-08-21T18:00:00,0,89.68
2022-08-22T06:00:00,0,87.99
2022-08-22T07:00:00,0,80.42
2022-08-22T08:00:00,0,90.51
2022-08-22T09:00:00,0,78.75
2022-08-22T10:00:00,0,95.77
2022-08-22T11:00:00,0,86.40
2022-08-22T12:00:00,0,93.12
2022-08-22T13:00:00,0,93.02
2022-08-22T14:00:00,0,72.27
2022-08-22T15:00:00,0,74.17
2022-08-22T16:00:00,0,78.69
2022-08-22T17:00:00,0,83.26
2022-08-22T18:00:00,0,75.04
2022-08-23T06:00:00,0,67.50
2022-08-23T07:00:00,0,63.88
2022-08-23T08:00:00,0,67.31
2022-08-23T09:00:00,0,76.06
2022-08-23T10:00:00,0,78.48
2022-08-23T11:00:00,0,77.89
2022-08-23T12:00:00,0,73.50
2022-08-23T13:00:00,0,69.99
2022-08-23T14:00:00,0,82.87
2022-08-23T15:00:00,0,84.72
2022-08-23T16:00:00,0,96.57
2022-08-23T17:00:00,0,89.14
2022-08-23T18:00:00,0,85.55
2022-08-24T06:00:00,0,67.79
2022-08-24T07:00:00,0,73.61
2022-08-24T08:00:00,0,87.68
2022-08-24T09:00:00,0,85.83
2022-08-24T10:00:00,0,86.04
2022-08-24T11:00:00,0,88.15
2022-08-24T12:00:00,0,87.10
2022-08-24T13:00:00,0,82.65
2022-08-24T14:00:00,0,74.63
2022-08-24T15:00:00,0,82.17
2022-08-24T16:00:00,0,95.42
2022-08-24T17:00:00,0,89.36
2022-08-24T18:00:00,0,93.88
2022-08-25T06:00:00,50,50.90
2022-08-25T07:00:00,0,74.56
2022-08-25T08:00:00,0,92.02
2022-08-25T09:00:00,0,80.29
2022-08-25T10:00:00,0,97.29
2022-08-25T11:00:00,0,80.47
2022-08-25T12:00:00,0,88.08
2022-08-25T13:00:00,0,83.42
2022-08-25T14:00:00,0,60.79
2022-08-25T15:00:00,0,87.78
2022-08-25T16:00:00,0,98.51
2022-08-25T17:00:00,0,88.60
2022-08-25T18:00:00,0,89.22
2022-08-26T06:00:00,0,81.32
2022-08-26T07:00:00,0,74.80
2022-08-26T08:00:00,0,80.36
2022-08-26T09:00:00,0,82.35
2022-08-26T10:00:00,0,79.03
2022-08-26T11:00:00,0,81.69
2022-08-26T12:00:00,0,86.00
2022-08-26T13:00:00,0,86.84
2022-08-26T14:00:00,0,83.22
2022-08-26T15:00:00,0,87.45
2022-08-26T16:00:00,0,82.24
2022-08-26T17:00:00,0,89.16
2022-08-26T18:00:00,0,78.67
2022-08-27T06:00:00,0,78.63
2022-08-27T07:00:00,0,75.54
2022-08-27T08:00:00,0,85.52
2022-08-27T09:00:00,0,75.22
2022-08-27T10:00:00,0,76.01
2022-08-27T11:00:00,0,82.91
2022-08-27T12:00:00,0,77.49
2022-08-27T13:00:00,0,79.79
2022-08-27T14:00:00,0,63.51
2022-08-27T15:00:00,0,80.05
2022-08-27T16:00:00,0,85.55
2022-08-27T17:00:00,0,74.75
2022-08-27T18:00:00,0,83.29
2022-08-28T06:00:00,0,76.36
2022-08-28T07:00:00,0,80.89
2022-08-28T08:00:00,0,86.03
2022-08-28T09:00:00,0,75.59
2022-08-28T10:00:00,0,83.02
2022-08-28T11:00:00,0,84.16
2022-08-28T12:00:00,0,88.60
2022-08-28T13:00:00,0,84.12
2022-08-28T14:00:00,0,87.48
2022-08-28T15:00:00,0,93.24
2022-08-28T16:00:00,0,87.52
2022-08-28T17:00:00,0,90.81
2022-08-28T18:00:00,0,87.81
2022-08-29T06:00:00,0,84.20
2022-08-29T07:00:00,0,79.34
2022-08-29T08:00:00,0,71.77
2022-08-29T09:00:00,0,54.49
2022-08-29T10:00:00,0,59.15
2022-08-29T11:00:00,0,73.85
2022-08-29T12:00:00,0,68.17
2022-08-29T13:00:00,0,62.31
2022-08-29T14:00:00,0,91.39
2022-08-29T15:00:00,0,57.47
2022-08-29T16:00:00,0,72.58
2022-08-29T17:00:00,0,91.94
2022-08-29T18:00:00,0,85.43
2022-08-30T06:00:00,0,77.03
2022-08-30T07:00:00,0,88.18
2022-08-30T08:00:00,0,74.05
2022-08-30T09:00:00,0,84.92
2022-08-30T10:00:00,0,84.58
2022-08-30T11:00:00,0,63.65
2022-08-30T12:00:00,0,85.84
2022-08-30T13:00:00,0,91.83
2022-08-30T14:00:00,0,84.18
2022-08-30T15:00:00,0,76.04
2022-08-30T16:00:00,0,82.54
2022-08-30T17:00:00,0,87.35
2022-08-30T18:00:00,0,89.62
2022-08-31T06:00:00,0,62.82
2022-08-31T07:00:00,0,69.40
2022-08-31T08:00:00,0,67.28
2022-08-31T09:00:00,0,90.42
2022-08-31T10:00:00,0,79.82
2022-08-31T11:00:00,50,51.95
2022-08-31T12:00:00,0,79.89
2022-08-31T13:00:00,0,86.38
2022-08-31T14:00:00,0,86.30
2022-08-31T15:00:00,0,75.67
2022-08-31T16:00:00,0,76.24
2022-08-31T17:00:00,0,82.57
2022-08-31T18:00:00,0,79.62
2022-09-01T06:00:00,50,51.72
2022-09-01T07:00:00,0,69.61
2022-09-01T08:00:00,0,73.71
2022-09-01T09:00:00,0,91.29
2022-09-01T10:00:00,0,88.89
2022-09-01T11:00:00,0,89.48
2022-09-01T12:00:00,0,86.65
2022-09-01T13:00:00,0,99.36
2022-09-01T14:00:00,0,90.88
2022-09-01T15:00:00,0,82.69
2022-09-01T16:00:00,0,98.37
2022-09-01T17:00:00,0,83.44
2022-09-01T18:00:00,0,86.76
2022-09-02T06:00:00,0,57.82
2022-09-02T07:00:00,0,64.06
2022-09-02T08:00:00,0,81.86
2022-09-02T09:00:00,0,74.46
2022-09-02T10:00:00,0,83.67
2022-09-02T11:00:00,0,74.92
2022-09-02T12:00:00,0,91.60
2022-09-02T13:00:00,0,76.47
2022-09-02T14:00:00,0,60.30
2022-09-02T15:00:00,0,89.78
2022-09-02T16:00:00,0,97.82
2022-09-02T17:00:00,0,71.76
2022-09-02T18:00:00,0,87.56
2022-09-03T06:00:00,0,77.93
2022-09-03T07:00:00,0,64.47
2022-09-03T08:00:00,0,87.47
2022-09-03T09:00:00,0,81.65
2022-09-03T10:00:00,0,82.34
2022-09-03T11:00:00,0,74.38
2022-09-03T12:00:00,0,84.20
2022-09-03T13:00:00,0,78.33
2022-09-03T14:00:00,0,86.75
2022-09-03T15:00:00,0,97.31
2022-09-03T16:00:00,0,97.78
2022-09-03T17:00:00,0,83.52
2022-09-03T18:00:00,0,90.98
2022-09-04T06:00:00,0,71.71
2022-09-04T07:00:00,0,79.26
2022-09-04T08:00:00,0,82.83
2022-09-04T09:00:00,0,75.78
2022-09-04T10:00:00,0,92.24
2022-09-04T12:00:00,0,92.88
2022-09-04T13:00:00,0,92.69
2022-09-04T14:00:00,0,78.90
2022-09-04T15:00:00,0,83.19
2022-09-04T16:00:00,0,88.12
2022-09-04T17:00:00,0,87.28
2022-09-04T18:00:00,0,90.06
2022-09-05T06:00:00,0,72.27
2022-09-05T07:00:00,0,68.67
2022-09-05T08:00:00,0,94.79
2022-09-05T09:00:00,0,94.43
2022-09-05T10:00:00,0,69.14
2022-09-05T11:00:00,0,85.01
2022-09-05T12:00:00,0,91.06
2022-09-05T13:00:00,0,88.21
2022-09-05T14:00:00,0,90.90
2022-09-05T15:00:00,0,90.54
2022-09-05T16:00:00,0,88.40
2022-09-05T17:00:00,0,92.55
2022-09-05T18:00:00,0,85.45
2022-09-06T06:00:00,0,67.86
2022-09-06T07:00:00,0,71.98
2022-09-06T08:00:00,0,93.54
2022-09-06T09:00:00,0,90.85
2022-09-06T10:00:00,0,88.56
2022-09-06T11:00:00,0,87.87
2022-09-06T12:00:00,0,95.29
2022-09-06T13:00:00,0,91.29
2022-09-06T14:00:00,0,86.94
2022-09-06T15:00:00,0,97.18
2022-09-06T16:00:00,0,99.04
2022-09-06T17:00:00,0,94.11
2022-09-06T18:00:00,0,75.27
2022-09-07T06:00:00,0,89.68
2022-09-07T07:00:00,0,70.79
2022-09-07T08:00:00,0,89.06
2022-09-07T09:00:00,0,90.84
2022-09-07T10:00:00,0,88.15
2022-09-07T11:00:00,0,72.53
2022-09-07T12:00:00,0,96.04
2022-09-07T13:00:00,0,93.99
2022-09-07T14:00:00,0,92.05
2022-09-07T15:00:00,0,98.58
2022-09-07T16:00:00,0,99.33
2022-09-07T17:00:00,0,95.92
2022-09-07T18:00:00,0,86.18
2022-09-08T06:00:00,0,76.37
2022-09-08T07:00:00,0,92.99
2022-09-08T08:00:00,0,74.22
2022-09-08T09:00:00,0,83.13
2022-09-08T10:00:00,0,85.15
2022-09-08T11:00:00,0,76.71
2022-09-08T12:00:00,0,95.91
2022-09-08T13:00:00,0,92.70
2022-09-08T14:00:00,0,92.05
2022-09-08T15:00:00,0,73.14
2022-09-08T16:00:00,0,93.01
2022-09-08T17:00:00,0,97.19
2022-09-08T18:00:00,0,90.15
2022-09-09T06:00:00,0,89.99
2022-09-09T07:00:00,0,93.33
2022-09-09T08:00:00,0,87.67
2022-09-09T09:00:00,0,92.37
2022-09-09T10:00:00,0,93.87
2022-09-09T11:00:00,0,94.74
2022-09-09T12:00:00,0,90.13
2022-09-09T13:00:00,0,82.39
2022-09-09T14:00:00,0,81.47
2022-09-09T15:00:00,0,91.05
2022-09-09T16:00:00,0,84.93
2022-09-09T17:00:00,0,81.51
2022-09-09T18:00:00,0,91.07
2022-09-10T06:00:00,0,65.72
2022-09-10T07:00:00,0,78.88
2022-09-10T08:00:00,0,88.66
2022-09-10T09:00:00,0,89.89
2022-09-10T10:00:00,0,93.67
2022-09-10T11:00:00,0,93.02
2022-09-10T12:00:00,0,92.58
2022-09-10T13:00:00,0,91.43
2022-09-10T14:00:00,0,90.31
2022-09-10T15:00:00,0,91.93
2022-09-10T16:00:00,0,90.03
2022-09-10T17:00:00,0,95.10
2022-09-10T18:00:00,0,90.24
2022-09-11T06:00:00,0,86.48
2022-09-11T07:00:00,0,83.95
2022-09-11T09:00:00,0,95.61
2022-09-11T10:00:00,0,92.30
2022-09-11T11:00:00,0,93.24
2022-09-11T12:00:00,0,91.96
2022-09-11T13:00:00,0,93.04
2022-09-11T14:00:00,0,93.24
2022-09-11T15:00:00,0,91.45
2022-09-11T16:00:00,0,91.06
2022-09-11T17:00:00,0,93.97
2022-09-11T18:00:00,0,89.35
2022-09-12T06:00:00,0,82.13
2022-09-12T07:00:00,0,77.97
2022-09-12T08:00:00,0,71.15
2022-09-12T09:00:00,0,90.31
2022-09-12T10:00:00,0,92.12
2022-09-12T11:00:00,0,85.81
2022-09-12T12:00:00,0,91.59
2022-09-12T13:00:00,0,93.94
2022-09-12T14:00:00,0,93.68
2022-09-12T15:00:00,0,93.69
2022-09-12T16:00:00,0,93.00
2022-09-12T17:00:00,0,95.59
2022-09-13T08:00:00,0,86.24
2022-09-13T09:00:00,0,82.55
2022-09-13T10:00:00,0,86.32
2022-09-13T11:00:00,0,89.09
2022-09-13T12:00:00,0,94.42
2022-09-13T13:00:00,0,97.14
2022-09-13T14:00:00,0,93.78
2022-09-13T15:00:00,0,91.05
2022-09-13T16:00:00,0,93.39
2022-09-13T17:00:00,0,94.60
2022-09-13T18:00:00,0,86.98
2022-09-14T06:00:00,0,84.91
2022-09-14T07:00:00,0,95.26
2022-09-14T08:00:00,0,89.16
2022-09-14T09:00:00,0,93.78
2022-09-14T10:00:00,0,83.99
2022-09-14T11:00:00,0,88.95
2022-09-14T12:00:00,0,94.60
2022-09-14T13:00:00,0,95.63
2022-09-14T14:00:00,0,93.55
2022-09-14T15:00:00,0,99.60
2022-09-14T16:00:00,0,98.88
2022-09-14T17:00:00,0,93.95
2022-09-14T18:00:00,0,90.01
2022-09-15T06:00:00,0,70.36
2022-09-15T07:00:00,0,92.59
2022-09-15T08:00:00,0,78.79
2022-09-15T09:00:00,0,95.70
2022-09-15T10:00:00,0,94.56
2022-09-15T11:00:00,0,93.05
2022-09-15T12:00:00,0,97.05
2022-09-15T13:00:00,0,97.06
2022-09-15T14:00:00,0,99.49
2022-09-15T15:00:00,0,89.77
2022-09-15T16:00:00,0,91.32
2022-09-15T17:00:00,0,88.35
2022-09-15T18:00:00,0,77.83
2022-09-16T06:00:00,0,82.92
2022-09-16T07:00:00,0,87.13
2022-09-16T08:00:00,0,87.02
2022-09-16T09:00:00,0,89.41
2022-09-16T10:00:00,0,94.50
2022-09-16T11:00:00,0,81.09
2022-09-16T12:00:00,0,94.93
2022-09-16T13:00:00,0,97.98
2022-09-16T14:00:00,0,91.27
2022-09-16T15:00:00,0,90.25
2022-09-16T16:00:00,0,85.63
2022-09-16T17:00:00,0,81.00
2022-09-16T18:00:00,0,73.24
2022-09-17T06:00:00,0,70.13
2022-09-17T07:00:00,0,73.14
2022-09-17T08:00:00,0,89.15
2022-09-17T09:00:00,0,93.07
2022-09-17T10:00:00,0,97.99
2022-09-17T11:00:00,0,97.52
2022-09-17T12:00:00,0,91.18
2022-09-17T13:00:00,0,92.73
2022-09-17T14:00:00,0,95.06
2022-09-17T15:00:00,0,91.69
2022-09-17T16:00:00,0,91.62
2022-09-17T17:00:00,0,90.05
2022-09-17T18:00:00,0,87.50
2022-09-18T06:00:00,0,67.92
2022-09-18T07:00:00,0,66.88
2022-09-18T08:00:00,0,73.83
2022-09-18T09:00:00,0,96.19
2022-09-18T10:00:00,0,88.41
2022-09-18T11:00:00,0,90.17
2022-09-18T12:00:00,0,91.45
2022-09-18T13:00:00,0,91.51
2022-09-18T14:00:00,0,60.69
2022-09-18T15:00:00,0,94.99
2022-09-18T16:00:00,0,86.81
2022-09-18T17:00:00,0,95.19
2022-09-18T18:00:00,0,84.24
2022-09-19T06:00:00,0,67.02
2022-09-19T07:00:00,0,64.47
2022-09-19T08:00:00,0,65.65
2022-09-19T09:00:00,0,90.10
2022-09-19T10:00:00,0,85.09
2022-09-19T11:00:00,0,95.69
2022-09-19T12:00:00,0,79.63
2022-09-19T13:00:00,0,79.88
2022-09-19T14:00:00,0,92.68
2022-09-19T15:00:00,0,91.03
2022-09-19T16:00:00,0,91.33
2022-09-19T17:00:00,0,91.24
2022-09-19T18:00:00,0,91.25
2022-09-20T06:00:00,0,83.46
2022-09-20T07:00:00,0,60.88
2022-09-20T08:00:00,0,73.28
2022-09-20T11:00:00,0,81.91
2022-09-20T12:00:00,0,84.83
2022-09-20T13:00:00,0,89.28
2022-09-20T14:00:00,0,94.34
2022-09-20T15:00:00,0,89.39
2022-09-20T16:00:00,0,89.46
2022-09-20T17:00:00,0,92.27
2022-09-20T18:00:00,0,88.30
2022-09-21T06:00:00,0,78.82
2022-09-21T07:00:00,0,99.48
2022-09-21T08:00:00,0,88.91
2022-09-21T09:00:00,0,81.75
2022-09-21T10:00:00,0,98.05
2022-09-21T11:00:00,0,98.84
2022-09-21T12:00:00,0,98.44
2022-09-21T13:00:00,0,98.74
2022-09-21T14:00:00,0,68.58
2022-09-21T15:00:00,0,99.54
2022-09-21T16:00:00,0,79.43
2022-09-21T17:00:00,0,92.83
2022-09-22T06:00:00,0,93.02
2022-09-22T07:00:00,0,93.71
2022-09-22T08:00:00,0,59.97
2022-09-22T09:00:00,0,93.94
2022-09-22T10:00:00,0,97.29
2022-09-22T11:00:00,0,94.98
2022-09-22T12:00:00,0,97.16
2022-09-22T13:00:00,0,95.47
2022-09-22T14:00:00,0,84.11
2022-09-22T15:00:00,0,98.12
2022-09-23T08:00:00,0,86.52
2022-09-23T09:00:00,0,87.60
2022-09-23T10:00:00,0,94.52
2022-09-23T11:00:00,0,96.31
2022-09-23T12:00:00,0,95.17
2022-09-23T13:00:00,0,94.92
2022-09-23T14:00:00,0,96.61
2022-09-23T15:00:00,0,85.77
2022-09-23T16:00:00,0,94.91
2022-09-23T17:00:00,0,94.41
2022-09-23T18:00:00,0,91.11
2022-09-24T06:00:00,0,63.44
2022-09-24T07:00:00,0,82.42
2022-09-24T08:00:00,0,83.82
2022-09-24T09:00:00,0,78.38
2022-09-24T10:00:00,0,92.37
2022-09-24T11:00:00,0,95.24
2022-09-24T12:00:00,0,95.29
2022-09-24T13:00:00,0,96.13
2022-09-24T15:00:00,0,96.60
2022-09-24T16:00:00,0,97.26
2022-09-24T17:00:00,0,96.53
2022-09-24T18:00:00,0,95.48
2022-09-25T06:00:00,0,85.29
2022-09-25T07:00:00,0,88.02
2022-09-25T08:00:00,0,94.87
2022-09-25T09:00:00,0,97.14
2022-09-25T10:00:00,0,96.69
2022-09-25T11:00:00,0,98.20
2022-09-25T12:00:00,0,97.01
2022-09-25T13:00:00,0,96.85
2022-09-25T14:00:00,0,95.78
2022-09-25T15:00:00,0,96.29
2022-09-25T16:00:00,0,96.55
2022-09-25T17:00:00,0,96.49
2022-09-25T18:00:00,0,93.41
2022-09-26T06:00:00,0,55.51
2022-09-26T07:00:00,0,76.04
2022-09-26T08:00:00,0,86.36
2022-09-26T09:00:00,0,85.71
2022-09-26T10:00:00,0,89.46
2022-09-26T11:00:00,0,92.99
2022-09-26T12:00:00,0,95.43
2022-09-26T13:00:00,0,95.77
2022-09-26T14:00:00,0,88.04
2022-09-26T15:00:00,0,87.45
2022-09-26T16:00:00,0,95.85
2022-09-26T17:00:00,0,97.52
2022-09-26T18:00:00,0,91.34
2022-09-27T06:00:00,50,57.45
2022-09-27T07:00:00,0,83.80
2022-09-27T08:00:00,0,86.65
2022-09-27T09:00:00,0,94.40
2022-09-27T10:00:00,0,95.03
2022-09-27T11:00:00,0,94.85
2022-09-27T12:00:00,0,90.62
2022-09-27T13:00:00,0,94.45
2022-09-27T14:00:00,0,96.23
2022-09-27T15:00:00,0,93.37
2022-09-27T16:00:00,0,86.50
2022-09-27T17:00:00,0,86.02
2022-09-27T18:00:00,0,84.43
2022-09-28T06:00:00,0,64.48
2022-09-28T07:00:00,0,83.11
2022-09-28T08:00:00,0,90.15
2022-09-28T09:00:00,0,84.47
2022-09-28T10:00:00,0,94.76
2022-09-28T11:00:00,0,95.86
2022-09-28T12:00:00,0,93.77
2022-09-28T13:00:00,0,97.18
2022-09-28T14:00:00,0,93.88
2022-09-28T15:00:00,0,94.36
2022-09-28T16:00:00,0,96.90
2022-09-28T17:00:00,0,91.08
2022-09-28T18:00:00,0,73.70
2022-09-29T06:00:00,0,92.50
2022-09-29T07:00:00,0,92.40
2022-09-29T08:00:00,0,93.98
2022-09-29T09:00:00,0,94.92
2022-09-29T10:00:00,0,94.24
2022-09-29T11:00:00,0,97.53
2022-09-29T12:00:00,0,97.90
2022-09-29T13:00:00,0,96.17
2022-09-29T14:00:00,0,97.53
2022-09-29T15:00:00,0,99.73
2022-09-29T16:00:00,0,93.69
2022-09-29T17:00:00,0,94.17
2022-09-29T18:00:00,0,91.13
2022-09-30T06:00:00,0,73.29
2022-09-30T07:00:00,0,83.32
2022-09-30T08:00:00,0,79.25
2022-09-30T09:00:00,0,92.40
2022-09-30T10:00:00,0,98.62
2022-09-30T11:00:00,0,99.13
2022-09-30T12:00:00,0,96.70
2022-09-30T13:00:00,0,98.16
2022-09-30T14:00:00,0,91.44
2022-09-30T15:00:00,0,96.79
2022-09-30T17:00:00,0,95.08
2022-09-30T18:00:00,0,51.23
2022-10-01T06:00:00,0,95.93
2022-10-01T07:00:00,0,94.97
2022-10-01T08:00:00,0,99.51
2022-10-01T09:00:00,0,98.41
2022-10-01T10:00:00,0,95.60
2022-10-01T11:00:00,0,94.43
2022-10-01T12:00:00,0,95.94
2022-10-01T13:00:00,0,94.62
2022-10-01T14:00:00,0,97.57
2022-10-01T15:00:00,0,87.20
2022-10-01T16:00:00,0,97.56
2022-10-01T17:00:00,0,95.50
2022-10-01T18:00:00,0,75.84
2022-10-02T06:00:00,0,78.15
2022-10-02T07:00:00,0,86.00
2022-10-02T08:00:00,0,91.03
2022-10-02T09:00:00,0,90.21
2022-10-02T10:00:00,0,94.22
2022-10-02T11:00:00,0,96.66
2022-10-02T12:00:00,0,92.31
2022-10-02T13:00:00,0,93.05
2022-10-02T14:00:00,0,93.01
2022-10-02T15:00:00,0,70.04
2022-10-02T16:00:00,0,94.34
2022-10-02T17:00:00,0,93.38
2022-10-02T18:00:00,0,90.54
2022-10-03T06:00:00,0,79.59
2022-10-03T07:00:00,0,76.61
2022-10-03T08:00:00,0,95.48
2022-10-03T09:00:00,0,98.17
2022-10-03T10:00:00,0,98.65
2022-10-03T11:00:00,0,96.72
2022-10-03T12:00:00,0,96.68
2022-10-03T13:00:00,0,99.06
2022-10-03T14:00:00,0,98.95
2022-10-03T15:00:00,0,99.95
2022-10-03T16:00:00,0,96.87
2022-10-03T17:00:00,0,83.23
2022-10-03T18:00:00,50,51.76
2022-10-04T06:00:00,0,97.80
2022-10-04T09:00:00,0,96.38
2022-10-04T10:00:00,0,95.12
2022-10-04T11:00:00,0,93.30
2022-10-04T12:00:00,0,95.62
2022-10-04T13:00:00,0,97.41
2022-10-04T14:00:00,0,95.01
2022-10-04T15:00:00,0,97.26
2022-10-04T16:00:00,0,97.58
2022-10-04T18:00:00,0,82.16
2022-10-05T07:00:00,0,95.12
2022-10-05T08:00:00,0,97.00
2022-10-05T09:00:00,0,96.72
2022-10-05T10:00:00,0,96.61
2022-10-05T12:00:00,0,97.74
2022-10-05T13:00:00,0,96.67
2022-10-05T14:00:00,0,98.21
2022-10-05T15:00:00,0,97.06
2022-10-05T16:00:00,0,95.70
2022-10-05T17:00:00,0,91.68
2022-10-05T18:00:00,0,98.48
2022-10-06T06:00:00,0,87.07
2022-10-06T07:00:00,0,82.10
2022-10-06T08:00:00,0,60.79
2022-10-06T09:00:00,0,90.86
2022-10-06T10:00:00,0,96.53
2022-10-06T11:00:00,0,92.59
2022-10-06T12:00:00,0,92.15
2022-10-06T13:00:00,0,91.50
2022-10-06T14:00:00,0,88.92
2022-10-06T15:00:00,0,91.05
2022-10-06T16:00:00,0,94.01
2022-10-06T17:00:00,0,91.89
2022-10-06T18:00:00,0,58.32
2022-10-07T06:00:00,0,79.72
2022-10-07T07:00:00,0,74.62
2022-10-07T08:00:00,0,87.96
2022-10-07T09:00:00,0,89.38
2022-10-07T10:00:00,0,91.78
2022-10-07T11:00:00,0,90.88
2022-10-07T12:00:00,0,91.43
2022-10-07T13:00:00,0,88.22
2022-10-07T14:00:00,0,94.28
2022-10-07T15:00:00,0,94.54
2022-10-07T16:00:00,0,91.42
2022-10-07T17:00:00,0,87.62
2022-10-07T18:00:00,0,99.75
2022-10-08T06:00:00,0,67.44
2022-10-08T07:00:00,0,56.21